OELCW LOWW-LOWL

Flight info

Callsign OELCW
Flight time 0h 23m
Altitude 16000
Route SOVIL DCT SITNI SITNI2K
Aircraft A20N/M-SDE2E3FGHIRWXY/LB1

Departure

Time 2026-04-20 15:53
Airport Vienna International Airport (LOWW)

Arrival

Time 2026-04-20 16:16
Airport Linz-Hörsching Airport (LOWL)
Time Latitude Longitude Altitude Speed Heading
2026-04-20 15:24 48.12017 16.55613 621 ft 0 kts 115°
2026-04-20 15:42 48.12017 16.55612 609 ft 2 kts 115°
2026-04-20 15:42 48.12025 16.55587 623 ft 3 kts 115°
2026-04-20 15:42 48.12032 16.55563 620 ft 2 kts 115°
2026-04-20 15:43 48.12046 16.55542 625 ft 3 kts 171°
2026-04-20 15:43 48.12061 16.55544 619 ft 2 kts 211°
2026-04-20 15:43 48.12061 16.55545 619 ft 0 kts 210°
2026-04-20 15:46 48.12060 16.55543 619 ft 0 kts 210°
2026-04-20 15:46 48.12040 16.55527 622 ft 6 kts 209°
2026-04-20 15:46 48.12005 16.55497 621 ft 5 kts 208°
2026-04-20 15:47 48.11962 16.55467 609 ft 8 kts 205°
2026-04-20 15:47 48.11899 16.55437 609 ft 9 kts 186°
2026-04-20 15:47 48.11840 16.55427 623 ft 9 kts 179°
2026-04-20 15:47 48.11792 16.55492 614 ft 11 kts 115°
2026-04-20 15:48 48.11754 16.55604 616 ft 14 kts 117°
2026-04-20 15:48 48.11703 16.55757 615 ft 18 kts 116°
2026-04-20 15:48 48.11646 16.55932 611 ft 19 kts 116°
2026-04-20 15:48 48.11596 16.56086 618 ft 16 kts 116°
2026-04-20 15:49 48.11543 16.56250 622 ft 19 kts 115°
2026-04-20 15:49 48.11484 16.56431 623 ft 17 kts 117°
2026-04-20 15:49 48.11431 16.56592 617 ft 18 kts 116°
2026-04-20 15:49 48.11372 16.56776 611 ft 21 kts 115°
2026-04-20 15:50 48.11310 16.56966 617 ft 21 kts 115°
2026-04-20 15:50 48.11243 16.57168 611 ft 23 kts 115°
2026-04-20 15:50 48.11185 16.57350 612 ft 18 kts 116°
2026-04-20 15:50 48.11126 16.57527 616 ft 14 kts 116°
2026-04-20 15:51 48.11090 16.57622 619 ft 11 kts 136°
2026-04-20 15:51 48.11008 16.57617 609 ft 14 kts 207°
2026-04-20 15:51 48.10938 16.57513 609 ft 16 kts 263°
2026-04-20 15:51 48.11012 16.57238 621 ft 56 kts 296°
2026-04-20 15:52 48.11171 16.56753 619 ft 98 kts 296°
2026-04-20 15:52 48.11707 16.55103 667 ft 155 kts 297°
2026-04-20 15:52 48.12007 16.54168 1124 ft 146 kts 297°
2026-04-20 15:53 48.11733 16.51141 2370 ft 162 kts 249°
2026-04-20 15:53 48.11199 16.49569 2790 ft 176 kts 248°
2026-04-20 15:53 48.10593 16.47862 3190 ft 196 kts 246°
2026-04-20 15:53 48.09890 16.45994 3759 ft 212 kts 244°
2026-04-20 15:54 48.09055 16.44160 4747 ft 217 kts 238°
2026-04-20 15:54 48.08111 16.42279 5403 ft 236 kts 237°
2026-04-20 15:54 48.07093 16.40230 6043 ft 255 kts 237°
2026-04-20 15:54 48.06018 16.38063 6871 ft 262 kts 237°
2026-04-20 15:55 48.04930 16.35875 7904 ft 262 kts 237°
2026-04-20 15:55 48.03899 16.33619 8884 ft 263 kts 246°
2026-04-20 15:55 48.03343 16.31020 9861 ft 262 kts 264°
2026-04-20 15:55 48.03312 16.28262 10564 ft 274 kts 272°
2026-04-20 15:56 48.03380 16.25309 10931 ft 295 kts 273°
2026-04-20 15:56 48.03452 16.22131 11419 ft 312 kts 272°
2026-04-20 15:56 48.03517 16.18861 12282 ft 316 kts 272°
2026-04-20 15:56 48.03577 16.15570 13194 ft 318 kts 272°
2026-04-20 15:57 48.03635 16.12249 14010 ft 322 kts 272°
2026-04-20 15:57 48.03690 16.08891 14788 ft 324 kts 272°
2026-04-20 15:57 48.03745 16.05500 15528 ft 328 kts 272°
2026-04-20 15:57 48.03799 16.02077 15876 ft 329 kts 272°
2026-04-20 15:58 48.03851 15.98694 15979 ft 330 kts 272°
2026-04-20 15:58 48.03905 15.95226 15993 ft 329 kts 272°
2026-04-20 15:58 48.03956 15.91783 15990 ft 330 kts 272°
2026-04-20 15:58 48.04006 15.88378 15991 ft 329 kts 272°
2026-04-20 15:59 48.04056 15.84956 15982 ft 328 kts 272°
2026-04-20 15:59 48.04104 15.81550 15980 ft 329 kts 272°
2026-04-20 15:59 48.04151 15.78167 15993 ft 328 kts 272°
2026-04-20 15:59 48.04198 15.74750 15992 ft 329 kts 272°
2026-04-20 16:00 48.04244 15.71330 15982 ft 329 kts 272°
2026-04-20 16:00 48.04289 15.67909 15993 ft 329 kts 272°
2026-04-20 16:00 48.04332 15.64493 15998 ft 329 kts 272°
2026-04-20 16:00 48.04374 15.61080 15985 ft 329 kts 272°
2026-04-20 16:01 48.04416 15.57652 15989 ft 329 kts 272°
2026-04-20 16:01 48.04458 15.54232 15981 ft 328 kts 272°
2026-04-20 16:01 48.04499 15.50811 15998 ft 329 kts 272°
2026-04-20 16:01 48.04537 15.47394 15898 ft 328 kts 272°
2026-04-20 16:02 48.04573 15.43994 15549 ft 326 kts 272°
2026-04-20 16:02 48.04608 15.40606 15069 ft 325 kts 272°
2026-04-20 16:02 48.04642 15.37239 14526 ft 324 kts 272°
2026-04-20 16:02 48.04687 15.33883 14014 ft 322 kts 272°
2026-04-20 16:03 48.04744 15.30546 13464 ft 320 kts 273°
2026-04-20 16:03 48.04802 15.27239 12992 ft 316 kts 273°
2026-04-20 16:03 48.04857 15.23969 12455 ft 314 kts 272°
2026-04-20 16:03 48.04910 15.20730 11971 ft 311 kts 272°
2026-04-20 16:04 48.04960 15.17506 11459 ft 309 kts 272°
2026-04-20 16:04 48.05008 15.14309 10969 ft 306 kts 272°
2026-04-20 16:04 48.05055 15.11145 10486 ft 304 kts 272°
2026-04-20 16:04 48.05100 15.08021 10249 ft 294 kts 272°
2026-04-20 16:05 48.05141 15.05046 10131 ft 280 kts 272°
2026-04-20 16:05 48.05180 15.02203 10021 ft 267 kts 272°
2026-04-20 16:05 48.05252 14.99491 9842 ft 256 kts 279°
2026-04-20 16:05 48.05897 14.97039 9496 ft 254 kts 297°
2026-04-20 16:06 48.06781 14.94730 9242 ft 259 kts 298°
2026-04-20 16:06 48.07666 14.92409 8967 ft 254 kts 298°
2026-04-20 16:06 48.08541 14.90108 8697 ft 255 kts 298°
2026-04-20 16:06 48.09412 14.87803 8439 ft 253 kts 298°
2026-04-20 16:07 48.10276 14.85509 8167 ft 253 kts 298°
2026-04-20 16:07 48.11137 14.83223 7905 ft 251 kts 298°
2026-04-20 16:07 48.11994 14.80943 7643 ft 251 kts 298°
2026-04-20 16:07 48.12845 14.78679 7388 ft 249 kts 298°
2026-04-20 16:08 48.13694 14.76420 7139 ft 250 kts 298°
2026-04-20 16:08 48.14543 14.74155 6889 ft 248 kts 299°
2026-04-20 16:08 48.15390 14.71895 6645 ft 249 kts 299°
2026-04-20 16:08 48.16225 14.69662 6402 ft 249 kts 299°
2026-04-20 16:09 48.17071 14.67402 6133 ft 249 kts 299°
2026-04-20 16:09 48.17917 14.65142 5866 ft 249 kts 299°
2026-04-20 16:09 48.18767 14.62869 5616 ft 250 kts 299°
2026-04-20 16:09 48.19617 14.60596 5359 ft 249 kts 299°
2026-04-20 16:10 48.20463 14.58330 5107 ft 249 kts 299°
2026-04-20 16:10 48.21305 14.56071 4855 ft 248 kts 299°
2026-04-20 16:10 48.22145 14.53820 4597 ft 246 kts 299°
2026-04-20 16:10 48.22979 14.51580 4334 ft 246 kts 299°
2026-04-20 16:11 48.23765 14.49329 4146 ft 239 kts 292°
2026-04-20 16:11 48.24160 14.46969 4034 ft 229 kts 277°
2026-04-20 16:11 48.24217 14.44649 3924 ft 216 kts 271°
2026-04-20 16:11 48.24151 14.42460 3808 ft 203 kts 269°
2026-04-20 16:12 48.24079 14.40410 3611 ft 191 kts 269°
2026-04-20 16:12 48.24012 14.38506 3428 ft 174 kts 269°
2026-04-20 16:12 48.23952 14.36793 3200 ft 152 kts 269°
2026-04-20 16:12 48.23897 14.35331 2982 ft 129 kts 270°
2026-04-20 16:13 48.23854 14.34038 2788 ft 125 kts 270°
2026-04-20 16:13 48.23806 14.32722 2629 ft 126 kts 270°
2026-04-20 16:13 48.23768 14.31433 2470 ft 123 kts 271°
2026-04-20 16:13 48.23735 14.30143 2317 ft 124 kts 269°
2026-04-20 16:14 48.23672 14.28843 2115 ft 127 kts 269°
2026-04-20 16:14 48.23611 14.27485 1923 ft 130 kts 270°
2026-04-20 16:14 48.23582 14.26148 1749 ft 127 kts 270°
2026-04-20 16:14 48.23544 14.24854 1587 ft 123 kts 268°
2026-04-20 16:15 48.23484 14.23569 1428 ft 123 kts 269°
2026-04-20 16:15 48.23446 14.22302 1270 ft 121 kts 272°
2026-04-20 16:15 48.23401 14.21015 1093 ft 125 kts 270°
2026-04-20 16:15 48.23358 14.19736 978 ft 116 kts 270°
2026-04-20 16:16 48.23328 14.18809 979 ft 64 kts 267°
2026-04-20 16:16 48.23307 14.18237 990 ft 46 kts 264°
2026-04-20 16:16 48.23300 14.17935 986 ft 17 kts 290°
2026-04-20 16:16 48.23410 14.17904 981 ft 19 kts 15°
2026-04-20 16:17 48.23537 14.17960 979 ft 19 kts 14°
2026-04-20 16:17 48.23653 14.18010 986 ft 17 kts 18°
2026-04-20 16:17 48.23719 14.18137 980 ft 17 kts 86°
2026-04-20 16:17 48.23726 14.18333 987 ft 20 kts 87°
2026-04-20 16:18 48.23735 14.18555 981 ft 22 kts 87°
2026-04-20 16:18 48.23740 14.18736 987 ft 16 kts 88°
2026-04-20 16:18 48.23746 14.18919 979 ft 16 kts 87°
2026-04-20 16:18 48.23752 14.19075 985 ft 16 kts 88°
2026-04-20 16:19 48.23757 14.19218 983 ft 13 kts 86°
2026-04-20 16:19 48.23760 14.19311 977 ft 8 kts 83°
2026-04-20 16:19 48.23802 14.19348 979 ft 4 kts
2026-04-20 16:19 48.23841 14.19347 980 ft 6 kts 357°
2026-04-20 16:20 48.23869 14.19345 977 ft 4 kts 357°
2026-04-20 16:20 48.23882 14.19326 973 ft 3 kts 277°
2026-04-20 16:20 48.23883 14.19287 977 ft 5 kts 271°
2026-04-20 16:20 48.23883 14.19258 981 ft 0 kts 269°